Weather History for Nelson Lagoon AP, Nelson Lago, AK

Change the Weather History Date:

Saturday, April 12, 2014

  Actual Average (PASD) Record (PASD)
Temperature  
Mean Temperature 41 °F -  
Max Temperature 45 °F 37 °F 46 °F (1990)
Min Temperature 37 °F 30 °F 8 °F (1985)
Degree Days  
Heating Degree Days 24    
Moisture  
Dew Point 36 °F    
Average Humidity 84    
Maximum Humidity 100    
Minimum Humidity 66    
Precipitation  
Precipitation 0.00 in - - ()
Sea Level Pressure  
Sea Level Pressure 29.61 in    
Wind  
Wind Speed 21 mph (South)    
Max Wind Speed 34 mph    
Max Gust Speed 48 mph    
Visibility 10 miles    
Events Rain    
Averages and records for this station are not official NWS values.
T = Trace of Precipitation, MM = Missing Value Source: NWS Daily Summary

Daily Weather History Graph

Daily Weather History Graph

Search for Another Location

Airport:

Trip Planner

Search our weather history database for the weather conditions in past years. The results will help you decide how hot, cold, wet, or windy it might be!

Date:

Astronomy

Apr. 12, 2014 Rise Set
Actual Time 7:45 AM AKDT 9:45 PM AKDT
Civil Twilight 7:06 AM AKDT 10:25 PM AKDT
Nautical Twilight 6:16 AM AKDT 11:16 PM AKDT
Astronomical Twilight 5:17 AM AKDT 12:16 AM AKDT
Moon 7:14 PM AKDT (4/12) 6:45 AM AKDT (4/12)
Length of Visible Light 15h 19m
Length of Day
13h 59m
Waxing Gibbous, 93% of the Moon is Illuminated
Apr 12
Waxing Gibbous
Apr 14
Full
Apr 21
Last Quarter
Apr 28
New
May 6
First Quarter

Hourly Weather History & Observations

Time (AKDT) Temp. Windchill Dew Point Humidity Pressure Visibility Wind Dir Wind Speed Gust Speed Precip Events Conditions
12:56 AM 39.9 °F 28.2 °F 36.9 °F 89% 29.50 in 10.0 mi SE 31.1 mph 34.5 mph N/A   Unknown
1:56 AM 39.9 °F 28.6 °F 36.9 °F 89% 29.48 in 10.0 mi SSE 28.8 mph 35.7 mph N/A   Unknown
2:56 AM 39.9 °F 27.6 °F 36.0 °F 86% 29.47 in 10.0 mi SSE 34.5 mph 48.3 mph N/A   Unknown
3:56 AM 39.9 °F 28.6 °F 36.0 °F 86% 29.51 in 10.0 mi SSE 28.8 mph 39.1 mph N/A   Unknown
4:56 AM 38.8 °F 29.4 °F 36.0 °F 89% 29.53 in 10.0 mi South 18.4 mph - N/A   Unknown
5:56 AM 38.8 °F 30.0 °F 34.9 °F 86% 29.57 in 10.0 mi South 16.1 mph - N/A   Unknown
6:56 AM 38.8 °F 28.8 °F 34.9 °F 86% 29.58 in 10.0 mi SSE 20.7 mph - N/A   Unknown
7:56 AM 38.8 °F 32.1 °F 34.9 °F 86% 29.60 in 10.0 mi NNW 10.4 mph - N/A   Unknown
8:56 AM 38.8 °F 30.0 °F 34.9 °F 86% 29.61 in 10.0 mi SSE 16.1 mph - N/A   Unknown
9:56 AM 38.8 °F 32.6 °F 36.0 °F 89% 29.63 in 10.0 mi SSE 9.2 mph - N/A   Unknown
10:56 AM 39.9 °F 31.4 °F 36.0 °F 86% 29.63 in 10.0 mi South 16.1 mph - N/A   Unknown
11:56 AM 41.0 °F 32.2 °F 34.9 °F 79% 29.65 in 10.0 mi South 18.4 mph - N/A   Unknown
12:56 PM 43.0 °F 35.1 °F 34.9 °F 73% 29.65 in 10.0 mi South 17.3 mph - N/A   Unknown
1:56 PM 43.0 °F 35.4 °F 34.9 °F 73% 29.66 in 10.0 mi South 16.1 mph - N/A   Unknown
2:56 PM 45.0 °F 37.6 °F 34.9 °F 68% 29.65 in 10.0 mi South 17.3 mph - N/A   Unknown
3:56 PM 43.9 °F 37.5 °F 34.9 °F 71% 29.65 in 10.0 mi South 12.7 mph - N/A   Unknown
4:56 PM 45.9 °F 39.1 °F 34.9 °F 66% 29.65 in 10.0 mi SSW 16.1 mph - N/A   Unknown
5:56 PM 45.0 °F 37.9 °F 36.0 °F 71% 29.65 in 10.0 mi SSW 16.1 mph - N/A   Unknown
6:56 PM 43.9 °F 37.5 °F 34.9 °F 71% 29.65 in 10.0 mi SW 12.7 mph - N/A   Unknown
7:56 PM 41.0 °F 36.4 °F 37.9 °F 89% 29.66 in 7.0 mi West 6.9 mph - N/A Rain Light Rain
8:56 PM 38.8 °F 32.1 °F 38.8 °F 100% 29.67 in 4.0 mi WSW 10.4 mph - N/A Rain Light Rain
9:56 PM 37.9 °F 33.5 °F 37.9 °F 100% 29.68 in 8.0 mi SW 5.8 mph - N/A Rain Light Rain
10:56 PM 38.8 °F 35.4 °F 38.8 °F 100% 29.68 in 10.0 mi West 4.6 mph - N/A   Unknown
11:56 PM 37.9 °F 32.1 °F 36.0 °F 93% 29.67 in 10.0 mi SW 8.1 mph - N/A   Unknown